Content
SEND FEEDBACK

Daily
Averages
Monthly
Summary
United States of America

INARAJAN, GUAM


Home > North America > United States > Guam
Elevation: 280 feet     Latitude: 13 18N     Longitude: 144 44E

WEATHER
 
SELECT A DAY
Number of Records: 341,794;   Date Range: 1/1/95 - 7/23/14
 
SHARE

PRINT THIS DATA

[ ← Previous Day ]
WEATHER ALMANAC - MARCH 20, 2013
[ Next Day → ]
[ °C ]   °F
Weather ElementAverageHighLow
Temperature78.4 °F84.2 °F (10:59 am)73.4 °F (11:21 pm)
Dewpoint75.2 °F77 °F (8:37 am)71.2 °F (11:55 pm)
Humidity89.9 %95 % (6:55 pm)74 % (11:03 am)
Barometer29.88 in29.92 in (9:55 am)29.82 in (3:55 pm)
Wind Speed14.5 mph23 mph (11:11 pm)
Wind Gust33.4 mph (11:11 pm)
Weather ElementAverage
Visibility9.7 mi
Wind DirectionENE (75.9 °)

Weather ElementTotal
Precipitation---
Cooling Degree Days13.8 (Base 65)
Growing Degree Days28.8 (Base 50)
Averaged from 121 records on March 20, 2013
WEATHER CONDITIONS BREAKOUT
WIND DIRECTION BREAKOUT
WEATHER BY HOUR - MARCH 20, 2013
[ °C ]   °F
Local TimeTemperatureDewpointHumidityBarometerVisibilityWind DirectionWind SpeedGust SpeedPrecipitationEventsConditions
12:07 AM78.8 °F75.2 °F89 %29.90 in10.0 miEast (90°)13.8 mphMostly Cloudy
12:43 AM78.8 °F75.2 °F89 %29.89 in10.0 miEast (80°)15.0 mphMostly Cloudy
12:55 AM78.1 °F75.6 °F92 %29.88 in10.0 miEast (90°)11.5 mphMostly Cloudy
12:58 AM78.8 °F75.2 °F89 %29.88 in10.0 miEast (90°)11.5 mphScattered Clouds
12:59 AM78.8 °F75.2 °F89 %29.88 in10.0 miEast (90°)11.5 mphMostly Cloudy
1:17 AM78.8 °F75.2 °F89 %29.88 in10.0 miEast (80°)11.5 mphMostly Cloudy
1:46 AM78.8 °F75.2 °F89 %29.87 in10.0 miENE (70°)11.5 mphMostly Cloudy
1:55 AM77.7 °F75.9 °F94 %29.86 in9.0 miENE (70°)11.5 mphMostly Cloudy
1:56 AM77.0 °F75.2 °F94 %29.86 in9.0 miENE (70°)13.8 mphLight Drizzle
2:03 AM77.0 °F75.2 °F94 %29.86 in9.0 miENE (60°)11.5 mphLight Drizzle
2:05 AM77.0 °F75.2 °F94 %29.86 in10.0 miENE (70°)10.4 mphMostly Cloudy
2:06 AM77.0 °F75.2 °F94 %29.86 in10.0 miENE (70°)10.4 mphMostly Cloudy
2:07 AM77.0 °F75.2 °F94 %29.86 in10.0 miEast (80°)10.4 mphMostly Cloudy
2:08 AM77.0 °F75.2 °F94 %29.86 in10.0 miEast (80°)10.4 mphMostly Cloudy
2:19 AM77.0 °F75.2 °F94 %29.86 in10.0 miENE (70°)13.8 mphMostly Cloudy
2:21 AM77.0 °F75.2 °F94 %29.86 in10.0 miEast (80°)11.5 mphMostly Cloudy
2:33 AM77.0 °F75.2 °F94 %29.86 in10.0 miEast (80°)13.8 mphOvercast
2:55 AM77.5 °F75.2 °F92 %29.85 in10.0 miEast (90°)13.8 mph0.00 inMostly Cloudy
3:45 AM77.0 °F75.2 °F94 %29.84 in10.0 miEast (80°)15.0 mphMostly Cloudy
3:47 AM77.0 °F75.2 °F94 %29.85 in10.0 miEast (80°)13.8 mphMostly Cloudy
3:55 AM77.7 °F75.6 °F93 %29.84 in10.0 miEast (80°)16.1 mphMostly Cloudy
4:11 AM77.0 °F75.2 °F94 %29.84 in10.0 miEast (90°)13.8 mphMostly Cloudy
4:15 AM77.0 °F75.2 °F94 %29.84 in10.0 miEast (90°)16.1 mphMostly Cloudy
4:25 AM77.0 °F75.2 °F94 %29.84 in10.0 miEast (90°)12.7 mphMostly Cloudy
4:55 AM77.7 °F75.0 °F91 %29.84 in10.0 miEast (90°)11.5 mphMostly Cloudy
5:05 AM77.0 °F75.2 °F94 %29.84 in10.0 miEast (80°)13.8 mphMostly Cloudy
5:06 AM77.0 °F75.2 °F94 %29.84 in10.0 miEast (80°)13.8 mphMostly Cloudy
5:08 AM77.0 °F75.2 °F94 %29.85 in10.0 miEast (90°)11.5 mphScattered Clouds
5:10 AM77.0 °F75.2 °F94 %29.84 in10.0 miEast (90°)12.7 mphMostly Cloudy
5:11 AM77.0 °F75.2 °F94 %29.84 in10.0 miEast (90°)11.5 mphMostly Cloudy
5:44 AM77.0 °F75.2 °F94 %29.85 in9.0 miEast (80°)17.3 mphRainLight Rain
5:49 AM77.0 °F75.2 °F94 %29.85 in9.0 miEast (90°)13.8 mphLight Drizzle
5:54 AM77.0 °F75.2 °F94 %29.85 in10.0 miEast (80°)11.5 mphMostly Cloudy
5:55 AM77.7 °F75.4 °F92 %29.85 in10.0 miEast (80°)13.8 mphMostly Cloudy
6:01 AM77.0 °F75.2 °F94 %29.86 in10.0 miEast (100°)11.5 mphMostly Cloudy
6:04 AM77.0 °F75.2 °F94 %29.86 in10.0 miEast (100°)10.4 mphMostly Cloudy
6:12 AM77.0 °F75.2 °F94 %29.86 in10.0 miEast (80°)12.7 mphMostly Cloudy
6:13 AM77.0 °F75.2 °F94 %29.86 in10.0 miEast (90°)13.8 mphMostly Cloudy
6:15 AM77.0 °F75.2 °F94 %29.86 in10.0 miEast (80°)15.0 mphMostly Cloudy
6:24 AM78.8 °F75.2 °F89 %29.87 in10.0 miEast (80°)13.8 mphMostly Cloudy
6:31 AM78.8 °F75.2 °F89 %29.87 in10.0 miEast (80°)17.3 mphMostly Cloudy
6:55 AM78.1 °F75.7 °F92 %29.88 in10.0 miEast (90°)15.0 mphMostly Cloudy
7:02 AM78.8 °F75.2 °F89 %29.88 in10.0 miEast (90°)12.7 mphMostly Cloudy
7:16 AM78.8 °F75.2 °F89 %29.89 in10.0 miEast (90°)17.3 mphMostly Cloudy
7:29 AM78.8 °F75.2 °F89 %29.90 in10.0 miEast (90°)15.0 mph20.7 mphScattered Clouds
7:35 AM78.8 °F75.2 °F89 %29.90 in10.0 miEast (90°)15.0 mph20.7 mphMostly Cloudy
7:55 AM79.2 °F75.4 °F88 %29.90 in10.0 miEast (90°)15.0 mph21.9 mphMostly Cloudy
8:37 AM80.6 °F77.0 °F89 %29.91 in10.0 miEast (90°)15.0 mph20.7 mphMostly Cloudy
8:41 AM80.6 °F75.2 °F84 %29.91 in10.0 miEast (80°)16.1 mphMostly Cloudy
8:44 AM80.6 °F75.2 °F84 %29.91 in10.0 miEast (90°)17.3 mphScattered Clouds
8:51 AM80.6 °F77.0 °F89 %29.91 in10.0 miEast (90°)13.8 mphMostly Cloudy
8:55 AM81.5 °F76.5 °F85 %29.91 in10.0 miEast (80°)17.3 mphMostly Cloudy
9:05 AM82.4 °F77.0 °F84 %29.91 in10.0 miEast (80°)15.0 mphScattered Clouds
9:09 AM82.4 °F77.0 °F84 %29.91 in10.0 miEast (80°)15.0 mphMostly Cloudy
9:55 AM82.2 °F75.9 °F81 %29.92 in10.0 miEast (90°)16.1 mph23.0 mphMostly Cloudy
10:16 AM82.4 °F77.0 °F84 %29.92 in10.0 miEast (90°)15.0 mphMostly Cloudy
10:18 AM82.4 °F77.0 °F84 %29.92 in10.0 miEast (90°)13.8 mphScattered Clouds
10:40 AM82.4 °F77.0 °F84 %29.92 in10.0 miEast (90°)15.0 mphMostly Cloudy
10:50 AM82.4 °F77.0 °F84 %29.92 in10.0 miEast (90°)16.1 mphScattered Clouds
10:52 AM82.4 °F77.0 °F84 %29.92 in10.0 miEast (90°)17.3 mph23.0 mphMostly Cloudy
10:55 AM83.1 °F76.1 °F79 %29.92 in10.0 miEast (90°)16.1 mph23.0 mphMostly Cloudy
10:57 AM82.4 °F77.0 °F84 %29.92 in10.0 miEast (80°)16.1 mph23.0 mphScattered Clouds
10:58 AM82.4 °F77.0 °F84 %29.92 in10.0 miEast (90°)16.1 mph23.0 mphMostly Cloudy
10:59 AM84.2 °F77.0 °F79 %29.92 in10.0 miEast (90°)15.0 mph23.0 mphMostly Cloudy
11:03 AM84.2 °F75.2 °F74 %29.91 in10.0 miEast (90°)17.3 mphScattered Clouds
11:40 AM84.2 °F77.0 °F79 %29.90 in10.0 miENE (70°)15.0 mphMostly Cloudy
11:55 AM84.2 °F76.6 °F78 %29.90 in10.0 miEast (80°)11.5 mphMostly Cloudy
12:55 PM82.9 °F76.5 °F81 %29.87 in10.0 miEast (80°)13.8 mphOvercast
1:55 PM82.9 °F76.5 °F81 %29.85 in10.0 miEast (90°)12.7 mphMostly Cloudy
1:56 PM82.4 °F77.0 °F84 %29.85 in10.0 miEast (90°)12.7 mphScattered Clouds
1:59 PM84.2 °F77.0 °F79 %29.85 in10.0 miEast (90°)15.0 mphMostly Cloudy
2:16 PM84.2 °F77.0 °F79 %29.85 in10.0 miEast (90°)12.7 mphScattered Clouds
2:17 PM84.2 °F77.0 °F79 %29.85 in10.0 miEast (90°)12.7 mphMostly Cloudy
2:55 PM82.8 °F76.1 °F80 %29.84 in10.0 miENE (70°)13.8 mphMostly Cloudy
3:55 PM82.9 °F76.3 °F80 %29.82 in10.0 miENE (70°)12.7 mphMostly Cloudy
4:55 PM81.1 °F75.4 °F83 %29.83 in10.0 miENE (60°)12.7 mphMostly Cloudy
5:06 PM80.6 °F75.2 °F84 %29.83 in10.0 miENE (60°)11.5 mphMostly Cloudy
5:18 PM80.6 °F75.2 °F84 %29.83 in10.0 miEast (80°)12.7 mphScattered Clouds
5:41 PM80.6 °F75.2 °F84 %29.84 in10.0 miENE (60°)16.1 mph19.6 mphMostly Cloudy
5:46 PM80.6 °F75.2 °F84 %29.84 in7.0 miENE (60°)15.0 mph19.6 mphRainLight Rain
5:55 PM78.1 °F75.2 °F91 %29.84 in4.0 miENE (70°)10.4 mph0.00 inRainHeavy Rain
6:10 PM77.0 °F75.2 °F94 %29.85 in2.5 miENE (60°)8.1 mph17.3 mphRainLight Rain
6:12 PM77.0 °F75.2 °F94 %29.85 in3.0 miNE (50°)9.2 mph17.3 mphRainHeavy Rain
6:17 PM77.0 °F75.2 °F94 %29.85 in4.0 miNE (40°)11.5 mphRainLight Rain
6:22 PM77.0 °F75.2 °F94 %29.85 in10.0 miNE (40°)10.4 mphMostly Cloudy
6:23 PM77.0 °F75.2 °F94 %29.85 in10.0 miNE (40°)10.4 mphMostly Cloudy
6:44 PM77.0 °F75.2 °F94 %29.86 in10.0 miENE (60°)11.5 mphScattered Clouds
6:55 PM76.6 °F75.0 °F95 %29.86 in10.0 miENE (70°)11.5 mph0.00 inPartly Cloudy
7:04 PM77.0 °F75.2 °F94 %29.86 in10.0 miENE (70°)12.7 mphMostly Cloudy
7:09 PM77.0 °F75.2 °F94 %29.87 in10.0 miENE (70°)12.7 mphMostly Cloudy
7:41 PM78.8 °F75.2 °F89 %29.87 in10.0 miENE (60°)13.8 mphOvercast
7:42 PM78.8 °F75.2 °F89 %29.87 in10.0 miENE (60°)13.8 mphOvercast
7:44 PM78.8 °F75.2 °F89 %29.87 in10.0 miENE (60°)12.7 mphOvercast
7:45 PM78.8 °F75.2 °F89 %29.87 in10.0 miENE (60°)12.7 mphOvercast
7:55 PM77.9 °F75.6 °F92 %29.88 in10.0 miNE (50°)13.8 mphOvercast
8:04 PM77.0 °F75.2 °F94 %29.88 in10.0 miNE (50°)19.6 mphOvercast
8:10 PM77.0 °F75.2 °F94 %29.88 in10.0 miNE (50°)19.6 mphOvercast
8:14 PM77.0 °F75.2 °F94 %29.88 in10.0 miENE (60°)16.1 mphRainLight Rain
8:22 PM77.0 °F75.2 °F94 %29.89 in9.0 miENE (60°)15.0 mphRainLight Rain
8:27 PM77.0 °F75.2 °F94 %29.89 in10.0 miENE (60°)12.7 mphMostly Cloudy
8:55 PM76.8 °F75.4 °F95 %29.90 in10.0 miENE (60°)15.0 mphOvercast
9:00 PM77.0 °F75.2 °F94 %29.90 in10.0 miENE (60°)12.7 mphOvercast
9:11 PM75.2 °F73.4 °F94 %29.91 in10.0 miENE (60°)17.3 mph25.3 mphOvercast
9:12 PM75.2 °F73.4 °F94 %29.91 in10.0 miENE (60°)17.3 mph25.3 mphOvercast
9:22 PM75.2 °F73.4 °F94 %29.91 in10.0 miENE (60°)16.1 mphOvercast
9:42 PM75.2 °F73.4 °F94 %29.91 in10.0 miENE (60°)16.1 mph21.9 mphOvercast
9:45 PM75.2 °F73.4 °F94 %29.91 in10.0 miENE (60°)19.6 mph23.0 mphOvercast
9:55 PM75.7 °F74.3 °F95 %29.91 in10.0 miNE (50°)19.6 mphOvercast
10:11 PM75.2 °F73.4 °F94 %29.91 in10.0 miENE (60°)18.4 mphOvercast
10:20 PM75.2 °F73.4 °F94 %29.92 in10.0 miENE (60°)19.6 mphOvercast
10:28 PM75.2 °F73.4 °F94 %29.91 in10.0 miNE (50°)17.3 mphMostly Cloudy
10:32 PM75.2 °F73.4 °F94 %29.91 in10.0 miENE (60°)16.1 mphRainLight Rain
10:54 PM75.2 °F73.4 °F94 %29.91 in10.0 miENE (60°)18.4 mph23.0 mphClear
10:55 PM75.4 °F73.2 °F93 %29.91 in10.0 miENE (70°)18.4 mph23.0 mph0.00 inClear
11:11 PM75.2 °F71.6 °F89 %29.91 in10.0 miEast (80°)23.0 mph33.4 mphMostly Cloudy
11:12 PM75.2 °F71.6 °F89 %29.91 in10.0 miEast (80°)23.0 mph33.4 mphScattered Clouds
11:15 PM75.2 °F71.6 °F89 %29.91 in9.0 miEast (90°)21.9 mph33.4 mphMostly Cloudy
11:21 PM73.4 °F71.6 °F94 %29.91 in9.0 miEast (90°)23.0 mph32.2 mphMostly Cloudy
11:37 PM73.4 °F71.6 °F94 %29.90 in10.0 miEast (80°)23.0 mph28.8 mphScattered Clouds
11:55 PM73.6 °F71.2 °F92 %29.89 in10.0 miEast (80°)17.3 mph26.5 mphPartly Cloudy
11:58 PM73.4 °F71.6 °F94 %29.89 in10.0 miEast (80°)18.4 mph25.3 mphLight Drizzle
Hourly data recorded from PGUA, located miles away from Inarajan, Guam







STORIES FROM OUR PARTNERS